FENGYUN 1C DEB

Satellite information

Favourite Embed

Satellite Type and Status

DEBRISIN ORBIT

Key statistics

Satellite FENGYUN 1C DEB at a glance.

Uptime

9494

Days in orbit

Revolutions

≈ 14.4

Per day

Orbit

SSO

Sun Synchronous Orbit

Inclination

98.8

Latest

Satellite identification and parameters

Extended collection of information and parameters for FENGYUN 1C DEB.

Object identification

Identified? True

Debris? True

Object name: FENGYUN 1C DEB

International designator: 1999-025ASH

Object number (NORAD): 30723

Object ID (CCSDS): 30723

Country: PEOPLES REPUBLIC OF CHINA (PRC)

Current information (Y/N): Y

RCS size: SMALL

Orbital parameters

Period: 100.131 minutes

Inclination: 98.8473 deg

SMA: 7142.865 km

Apoapsis: 777.29 km

Periapsis: 752.17 km

RAAN: 204.8898 deg

Eccentricy: 0.0017584

Argument of periapsis: 192.4753 deg

Mean anomaly: 229.3309 deg

Mean motion: 14.38116653 rev/day

Mean motion (dot): 0.00007568 rev/day2

B* drag term: 0.0025048 1/REarth

Two-line elements (TLE)

Creation date: May 6, 2025, 3:54 a.m.

Reference frame: TEME

Reference center: EARTH

Epoch: May 5, 2025, 9:54 p.m. UTC

TLE line 0: 0 FENGYUN 1C DEB

TLE line 1: 1 30723U 99025ASH 25125.91256726 .00007568 00000-0 25048-2 0 9990

TLE line 2: 2 30723 98.8473 204.8898 0017584 192.4753 229.3309 14.38116653941944

Live tracking on map

Real-time ground track for satellite FENGYUN 1C DEB.

In-orbit conjunctions

A list of the most updated potential collisions computed for object FENGYUN 1C DEB.

Target Orbit TCA Probability of collision Miss distance Type
CZ-6A DEB LEO 2025-02-03 21:59:31 0.0002016304 348.0 (m) DEBRIS
CZ-4C R/B SSO 2024-12-24 05:23:17 0.000142235 134.0 (m) ROCKET BODY
DELTA 1 DEB SSO 2024-08-14 04:45:22 0.0004638849 95.0 (m) DEBRIS
SL-16 DEB LEO 2024-07-16 05:46:39 0.0001212224 223.0 (m) DEBRIS
CZ-4 DEB SSO 2024-06-06 05:41:07 0.0001566742 263.0 (m) DEBRIS

Associated space launch

Chinese polar orbiting meteorological satellite

FENGYUN 1C DEB was lifted into orbit during the mission ‘Long March 4B | Feng Yun 1C’, on board a Long March 4B space rocket.

The launch took place on May 10, 1999, 1:33 a.m. from Launch Complex 7.

For more information about the launch, click the button.

Launch to space Long March 4B | Feng Yun 1C
Long March 4B | Feng Yun 1C

Agency: N/A

Status: Launch Successful

Launch date: May 10, 1999, 1:33 a.m. UTC

Rocket: Long March 4B

Launch pad: Launch Complex 7

Location: Taiyuan Satellite Launch Center, People's Republic of China

...

Latest news about this satellite

There are no fresh news available about this satellite. Check back as we update our databases every day.


Newsletter sign-up

Weekly statistics, charts and insights to help you stay on top of the space industry.